708  
ASUS41 KPHI 241112  
RWRPHI  
 
REGIONAL WEATHER ROUNDUP  
NATIONAL WEATHER SERVICE MOUNT HOLLY NJ  
600 AM EST WED JAN 24 2018  
 
NOTE: "FAIR" INDICATES FEW OR NO CLOUDS BELOW 12,000 FEET WITH NO  
SIGNIFICANT WEATHER AND/OR S TO VISIBILITY
.  
 
* = STATION DOES NOT REPORT PRECIPITATION (E.G. RAIN, SNOW, ETC.)  
OR FOG.
 
 
NJZ015>026-241200-  
SOUTHERN NEW JERSEY  
 
CITY SKY/WX TMP DP RH WIND PRES REMARKS
 
POMONA CLOUDY 43 32 65 W7 29.91R  
WILDWOOD* CLOUDY 41 31 67 W10 29.96R  
MILLVILLE CLOUDY 42 32 67 SW7 29.93R  
WRIGHTSTOWN CLOUDY 43 28 55 W15G25 29.85R  
MOUNT HOLLY CLOUDY 44 27 51 W13G30 29.90R  
TRENTON CLOUDY 43 29 57 W9G17 29.86R  
 

 
NJZ001>014-241200-  
NORTHERN NEW JERSEY  
 
CITY SKY/WX TMP DP RH WIND PRES REMARKS
 
SUSSEX CLOUDY 39 25 57 W14G24 29.82R WCI 31  
ANDOVER* N/A 39 27 62 VRB6 29.82R WCI 35  
MORRISTOWN CLOUDY 41 28 60 W10 29.83R  
NEWARK CLOUDY 43 29 57 W13 29.83R  
TETERBORO CLOUDY 43 27 53 W10G29 29.81R  
CALDWELL CLOUDY 42 27 55 W5 29.83R  
SOMERVILLE CLOUDY 41 29 62 W8G17 29.83R  
ALLAIRE* FAIR 39 30 70 W8 29.87R WCI 33  
TOMS RIVER* CLOUDY 40 34 79 W13G23 29.88R WCI 32  
 

 
PAZ043-044-047-054-055-060>062-066>071-241200-  
EASTERN PENNSYLVANIA  
 
CITY SKY/WX TMP DP RH WIND PRES REMARKS
 
PHILADELPHIA CLOUDY 45 29 53 W16 29.92R  
NORTH PHILA CLOUDY 45 28 51 W18G29 29.90R  
BLUE BELL* CLOUDY 41 28 60 W9G25 29.90R  
DOYLESTOWN CLOUDY 40 28 62 NW15G23 29.86R WCI 32  
PERKASIE* CLOUDY 39 28 65 NW14G23 29.88R WCI 31  
POTTSTOWN CLOUDY 40 27 59 W15G23 29.90R WCI 32  
LANCASTER CLOUDY 41 29 62 NW17 29.91R  
COATESVILLE CLOUDY 41 28 60 W17 29.90R  
READING CLOUDY 40 31 70 W10 29.90R WCI 33  
ALLENTOWN CLOUDY 41 27 57 W15G23 29.87R  
MOUNT POCONO LGT SNOW 30 27 88 W17 29.78R FOG WCI 18  
HAZLETON CLOUDY 32 27 80 W9G21 29.87R WCI 24  
LEHIGHTON CLOUDY 37 28 70 W10G16 29.88R WCI 30  
WILKES BARRE CLOUDY 35 25 66 NW15G30 29.85R WCI 25  
 

 
DEZALL-MDZ008-012-015-019-020-241200-  
DELAWARE AND EASTERN MARYLAND  
 
CITY SKY/WX TMP DP RH WIND PRES REMARKS
 
WILMINGTON CLOUDY 43 31 62 W7 29.93R  
DOVER FAIR 41 33 74 SW12 29.95R  
GEORGETOWN FAIR 42 29 59 W6 29.97R  
EASTON CLEAR 41 30 65 W7 30.02R  
PATUXENT FAIR 36 29 75 NW3 30.00R  
OCEAN CITY FAIR 44 30 57 NW9 29.98R  
WALLOPS ISLAND FAIR 39 31 72 W3 30.00R  
CAMBRIDGE PTCLDY 43 28 56 W5 29.99R  
SALISBURY FAIR 44 29 55 W9 29.98R  
 

 
PAZ001-021-NYZ056-072-MDZ011-DCZ001-241200-  
OTHER NEARBY LOCATIONS  
 
CITY SKY/WX TMP DP RH WIND PRES REMARKS
 
HARRISBURG CLOUDY 40 29 64 NW20G26 29.93R WCI 30  
STATE COLLEGE CLOUDY 32 23 69 W18G33 29.96R WCI 20  
WILLIAMSPORT CLOUDY 36 25 64 NW18G26 29.92R WCI 26  
BINGHAMTON CLOUDY 25 21 85 NW15G24 29.84R WCI 13  
NEW YORK CITY CLOUDY 42 29 59 VRB5 29.83R  
BALTIMORE MOCLDY 40 30 67 W5 29.97R  
WASHINGTON DC FAIR 44 28 53 NW10 30.01R  
 

 
 
 
CLICK HERE TO GO TO PREVIOUS BULLETINS.

The Nexlab PA Page
The Nexlab NJ Page
The Nexlab DE Page
The Nexlab MD Page Main Text Page